Wind_Speed
25 25 26 27 27 27 28 28 26 25 24 23 23 23 23 23 23 22 22 21 21 21 21 20 20 20 20 21 21 21 20 20 19 19 19 19 18 17 16 15 15 15 14 14
25 25 26 26 26 27 27 27 26 25 25 24 24 24 23 23 23 23 22 22 21 21 20 20 20 20 21 21 21 21 20 20 20 19 18 18 18 17 17 16 16 16 15 15
23 24 25 26 26 26 26 26 26 25 25 24 24 24 24 24 24 23 23 22 22 21 21 21 21 21 21 21 21 21 21 21 20 19 19 18 18 18 17 17 17 16 15 14
23 24 24 25 25 25 25 25 25 26 25 24 23 23 24 24 24 23 23 23 23 22 22 22 22 22 21 21 21 21 21 20 20 19 19 19 19 19 18 17 17 17 16 15
23 23 25 25 24 24 25 25 25 25 25 24 24 23 24 24 24 23 23 23 23 22 22 22 22 22 21 21 21 20 20 20 20 20 20 19 19 18 18 17 17 17 17 16
25 23 24 24 24 25 25 26 25 25 25 24 24 24 24 25 25 23 22 22 23 23 23 23 23 23 22 22 21 20 20 20 20 20 19 19 18 18 18 17 17 17 17 17
25 25 24 24 24 24 25 25 25 25 25 25 24 24 25 25 25 24 22 22 22 22 23 23 23 23 22 22 21 20 20 20 20 19 18 19 18 18 18 18 18 18 18 18
25 25 25 24 24 24 24 24 24 24 24 25 24 24 24 24 24 24 24 23 23 24 24 24 23 23 22 21 21 20 19 19 19 19 19 19 19 19 19 19 19 19 19 19
24 24 24 24 25 25 25 25 24 24 24 25 25 24 24 24 24 24 24 24 24 24 25 24 23 23 22 22 22 21 20 19 19 18 19 19 19 19 19 19 19 19 20 20
24 24 24 24 24 25 25 25 25 24 24 24 24 23 24 24 24 24 25 25 25 25 24 24 24 23 22 22 21 21 21 20 19 19 19 19 19 18 18 19 19 20 20 20
23 23 23 24 24 24 24 24 25 24 23 23 24 24 23 23 24 24 24 24 25 25 25 24 24 23 23 23 22 22 22 21 21 20 20 20 20 19 19 19 20 21 21 21
22 22 22 22 23 23 23 23 24 24 23 23 23 23 23 23 23 24 24 24 24 24 24 23 23 23 23 22 22 23 22 21 21 21 20 20 20 20 20 20 20 21 21 21
20 20 20 21 21 21 21 21 21 21 22 22 22 22 22 22 23 23 23 24 24 24 23 22 23 23 23 21 22 23 23 21 21 21 21 21 20 20 21 21 22 22 22 23
18 18 18 19 19 19 19 19 19 19 20 20 21 22 22 22 23 24 24 23 23 22 22 22 22 21 21 22 22 22 22 21 21 21 22 21 21 21 22 23 22 23 23 23
17 17 18 18 18 18 18 18 18 18 18 20 20 21 21 21 21 23 23 22 21 21 21 21 21 21 21 22 22 23 23 22 21 21 20 20 20 22 23 23 24 25 25 25
17 16 17 17 17 17 17 17 17 17 18 19 20 20 20 20 20 21 21 21 21 21 21 21 21 22 21 21 21 21 22 22 22 22 22 22 22 22 23 24 25 25 26 26
16 16 16 16 16 17 17 17 17 17 18 18 20 20 20 19 19 20 21 21 21 21 22 22 21 21 21 22 22 21 21 21 22 22 23 24 24 24 25 26 26 26 26 26
16 16 16 16 16 16 16 16 17 17 17 18 19 20 20 19 19 20 20 21 21 21 22 22 22 21 21 22 22 22 21 21 22 23 23 24 25 26 27 27 27 27 26 26
15 15 15 16 16 16 17 17 17 17 17 18 19 19 19 20 20 20 21 21 22 22 21 21 22 22 22 22 22 22 21 21 22 23 24 24 25 26 26 26 26 26 26 26
16 16 16 16 16 16 16 17 17 16 16 16 17 18 18 19 20 21 21 21 22 21 22 22 22 22 22 22 22 23 23 22 23 24 24 24 25 25 25 25 25 25 25 25
16 17 17 16 15 15 16 16 16 16 16 17 18 18 18 19 21 22 22 21 21 21 22 23 24 23 22 22 23 23 23 24 23 23 24 25 25 26 26 25 24 24 25 26
16 17 16 16 16 16 16 16 17 17 17 17 18 18 19 19 20 21 21 22 22 23 23 23 24 24 23 23 23 23 24 24 24 25 25 25 25 25 24 24 24 24 25 25
15 15 16 16 16 16 16 17 17 17 18 18 18 18 19 19 19 20 20 20 22 23 23 22 22 22 23 24 24 24 24 24 25 25 25 25 24 24 24 24 25 25 26 26
15 15 15 16 17 17 17 17 17 17 18 18 18 18 19 19 19 19 19 19 20 20 21 21 22 23 23 24 24 24 24 24 24 24 24 24 24 24 25 25 25 26 26 27
14 16 16 16 16 16 16 16 17 17 17 18 19 19 19 19 19 18 18 18 19 19 20 21 22 23 24 24 25 25 24 23 23 23 24 24 24 24 24 25 26 27 27 28
14 15 15 16 16 16 16 17 17 17 18 18 19 20 20 20 19 18 18 18 18 19 20 21 22 23 23 24 24 23 23 23 23 23 23 23 24 24 25 26 26 27 28 28
14 15 15 15 16 16 16 17 17 17 17 18 18 19 19 18 18 18 17 17 18 18 19 20 21 22 22 21 21 21 22 22 23 23 23 24 24 25 26 26 26 27 27 27
Wind_Direction
232 232 236 239 239 239 239 239 243 246 247 248 248 246 245 245 246 247 249 252 255 257 257 258 260 262 266 271 273 274 276 277 272 272 274 273 271 271 272 272 272 273 274 277
235 234 235 237 237 239 240 241 243 245 247 247 248 246 244 244 246 246 248 250 253 255 254 256 259 262 266 271 272 273 275 274 272 273 275 272 270 268 269 270 271 272 274 276
235 236 236 237 236 238 240 240 241 243 245 246 246 245 244 245 246 246 247 249 250 252 254 256 259 262 266 270 271 271 270 270 270 271 272 271 271 268 268 269 269 271 273 275
234 235 236 238 237 237 239 240 241 242 245 245 243 243 245 246 247 247 246 249 249 251 255 258 259 262 266 269 270 270 267 267 267 269 271 272 271 266 267 268 268 268 268 270
233 238 239 238 238 237 238 239 240 241 243 244 244 243 244 244 245 245 246 249 249 252 255 257 259 262 264 266 267 269 267 264 265 265 267 268 268 264 266 268 268 266 267 268
235 238 243 242 240 240 241 242 240 241 242 241 241 242 242 243 243 244 247 248 250 252 254 256 258 259 261 263 265 268 268 263 261 262 263 265 264 263 265 266 267 265 266 267
235 238 242 242 240 240 241 244 242 243 243 240 240 240 242 244 243 243 246 249 250 251 254 257 258 258 260 262 263 266 266 263 259 260 261 261 261 262 266 267 266 266 268 269
235 238 242 241 239 237 240 244 244 244 244 242 240 241 243 245 246 247 248 250 250 252 254 256 257 257 257 259 262 264 265 263 259 260 260 259 260 263 265 264 265 267 270 271
237 240 243 242 241 239 240 242 243 244 245 243 241 240 243 245 246 247 247 249 249 251 254 255 257 256 256 259 261 261 262 261 258 260 262 260 260 262 262 263 265 267 269 271
241 242 242 242 243 242 241 242 243 245 245 244 242 241 242 244 246 247 247 249 248 249 251 253 255 253 254 256 258 260 260 259 258 258 259 259 259 261 262 264 266 268 269 272
242 243 243 243 244 243 243 242 242 243 244 243 243 244 244 245 246 246 246 246 247 247 249 252 250 250 252 255 258 259 261 260 258 257 255 257 260 261 265 267 268 269 270 272
240 242 241 240 242 243 242 241 242 242 243 242 243 245 246 247 247 247 246 246 247 249 249 250 250 249 252 256 258 260 263 261 258 256 255 257 260 261 264 267 269 269 271 272
237 239 240 240 241 241 240 241 242 243 241 240 241 243 245 245 245 245 245 246 248 250 251 250 250 250 251 254 257 258 260 260 258 256 255 257 259 261 264 267 268 269 271 273
233 236 238 238 239 239 239 240 240 241 240 238 240 242 245 245 243 244 245 247 247 246 246 246 247 249 252 253 255 258 262 260 259 260 259 260 262 264 266 268 269 270 273 274
231 233 236 238 239 240 240 240 238 239 242 240 240 241 244 244 244 243 243 244 243 243 244 244 246 249 254 256 258 261 263 261 260 260 262 264 267 269 269 270 271 273 274 275
232 233 234 235 236 239 242 243 241 241 243 242 239 242 244 245 243 240 240 241 240 241 243 245 248 250 254 258 261 263 264 262 260 261 263 267 270 272 272 273 274 274 276 276
233 232 233 234 236 239 242 245 244 245 247 244 240 240 242 243 242 240 239 239 239 240 243 246 250 253 257 260 263 265 266 265 263 265 267 268 270 272 273 274 274 275 276 277
230 231 233 236 238 240 241 244 246 247 247 243 240 239 239 238 240 241 242 243 244 245 247 248 252 255 259 263 263 265 267 269 269 270 271 270 271 273 274 274 273 273 274 277
233 232 232 235 238 240 241 243 245 246 244 242 241 240 240 241 241 242 243 245 246 248 251 253 255 256 259 262 263 264 267 270 272 272 273 273 273 275 277 276 274 273 274 276
235 236 237 239 239 239 239 240 241 243 244 241 242 243 244 244 245 245 245 246 248 249 251 252 254 255 257 260 262 264 268 271 273 273 274 275 274 274 276 277 277 277 278 279
236 238 238 239 240 242 244 245 245 243 242 241 242 244 247 248 248 247 245 246 247 249 252 253 255 257 259 262 263 265 267 270 272 274 276 275 275 274 274 276 278 278 279 280
234 236 239 241 244 245 246 248 248 247 245 244 244 244 247 247 248 247 246 247 250 252 252 254 255 256 257 260 263 265 267 269 271 274 276 277 277 276 275 275 277 279 281 282
238 237 239 242 245 247 248 249 249 248 246 247 247 249 249 248 248 250 252 252 253 253 253 253 254 256 257 259 262 266 269 270 273 275 276 276 276 276 276 276 277 280 282 282
240 238 243 248 249 249 250 250 248 247 247 248 250 251 251 250 252 252 252 253 254 253 252 254 256 259 261 262 264 267 269 271 272 274 276 277 276 275 276 278 279 282 284 284
246 246 248 251 251 250 250 249 248 248 249 251 252 253 254 254 256 255 254 254 257 256 257 258 259 262 264 265 266 267 268 270 272 275 277 277 277 278 279 280 282 283 284 285
250 249 250 251 251 249 249 249 250 249 251 252 253 254 257 259 258 257 258 262 262 262 264 264 264 265 266 267 268 268 269 272 274 275 276 278 281 282 284 284 284 284 284 285
249 250 250 250 250 249 249 250 249 250 251 252 252 254 256 259 261 262 263 265 266 267 267 266 265 266 266 266 268 270 271 273 276 278 278 280 282 284 286 287 287 286 285 285
Height
5783 5786 5788 5791 5793 5796 5799 5802 5806 5808 5810 5811 5813 5814 5816 5818 5820 5822 5823 5824 5825 5826 5827 5828 5828 5828 5828 5828 5827 5827 5826 5825 5824 5824 5824 5824 5824 5823 5823 5823 5822 5822 5821 5820
5776 5779 5781 5784 5787 5790 5792 5795 5798 5801 5803 5804 5806 5808 5810 5811 5813 5815 5817 5818 5820 5821 5822 5822 5823 5823 5823 5822 5822 5821 5821 5820 5820 5820 5820 5819 5819 5819 5819 5819 5818 5818 5817 5816
5770 5772 5775 5778 5781 5783 5785 5788 5791 5794 5796 5797 5799 5801 5803 5805 5807 5809 5811 5812 5813 5815 5815 5816 5817 5817 5817 5817 5816 5816 5815 5815 5815 5816 5815 5815 5815 5815 5814 5814 5814 5813 5813 5813
5764 5767 5769 5774 5773 5776 5779 5781 5784 5786 5789 5790 5793 5795 5796 5798 5800 5802 5804 5806 5807 5808 5809 5810 5811 5811 5811 5811 5810 5810 5810 5810 5811 5811 5810 5810 5810 5810 5810 5809 5809 5809 5809 5809
5758 5760 5763 5765 5767 5770 5772 5775 5777 5779 5782 5784 5786 5788 5790 5791 5794 5796 5798 5799 5801 5802 5803 5804 5805 5805 5805 5805 5805 5805 5805 5805 5805 5805 5805 5805 5805 5805 5805 5805 5804 5804 5804 5804
5751 5754 5757 5760 5761 5763 5767 5768 5770 5772 5775 5777 5779 5782 5784 5785 5787 5790 5791 5793 5794 5795 5797 5798 5798 5799 5799 5799 5799 5799 5799 5799 5799 5799 5799 5799 5800 5800 5800 5800 5800 5800 5800 5799
5745 5747 5749 5752 5754 5757 5761 5762 5764 5765 5768 5770 5772 5775 5777 5779 5781 5783 5785 5786 5787 5789 5790 5791 5792 5793 5793 5793 5793 5793 5793 5793 5793 5794 5794 5794 5794 5795 5795 5795 5795 5795 5795 5794
5739 5741 5745 5745 5748 5751 5753 5754 5756 5758 5761 5763 5765 5768 5770 5772 5774 5776 5778 5780 5781 5782 5784 5785 5786 5786 5787 5788 5788 5788 5788 5788 5788 5788 5788 5788 5789 5789 5789 5789 5789 5789 5789 5789
5733 5736 5737 5738 5741 5743 5746 5748 5750 5752 5754 5756 5759 5761 5764 5766 5768 5770 5771 5773 5774 5776 5777 5778 5779 5780 5781 5782 5782 5782 5782 5783 5783 5783 5783 5783 5783 5783 5783 5784 5784 5784 5784 5783
5726 5729 5731 5732 5734 5736 5739 5741 5743 5745 5748 5750 5752 5755 5757 5759 5761 5763 5764 5766 5767 5769 5770 5772 5773 5774 5775 5775 5776 5776 5777 5777 5777 5777 5777 5777 5777 5778 5778 5778 5778 5778 5778 5777
5720 5723 5724 5726 5728 5730 5732 5734 5736 5739 5741 5743 5746 5748 5750 5752 5754 5756 5758 5759 5760 5762 5763 5765 5766 5767 5768 5769 5769 5770 5770 5771 5771 5771 5771 5771 5771 5772 5772 5772 5772 5772 5772 5771
5714 5716 5718 5720 5721 5723 5725 5728 5730 5732 5735 5737 5740 5742 5744 5746 5748 5749 5751 5752 5754 5755 5756 5758 5759 5760 5761 5762 5763 5764 5764 5764 5764 5765 5765 5765 5765 5765 5765 5766 5766 5765 5765 5765
5708 5710 5712 5714 5716 5717 5719 5721 5723 5726 5728 5731 5733 5735 5737 5739 5741 5742 5744 5745 5747 5749 5750 5751 5752 5753 5755 5755 5757 5757 5758 5758 5758 5758 5759 5759 5759 5759 5759 5759 5759 5759 5758 5758
5703 5705 5707 5709 5710 5712 5714 5716 5718 5720 5722 5724 5727 5729 5731 5732 5734 5735 5737 5738 5740 5742 5743 5745 5746 5747 5748 5749 5750 5751 5751 5751 5752 5752 5752 5753 5753 5753 5753 5752 5752 5752 5751 5751
5698 5700 5702 5703 5705 5707 5708 5710 5712 5714 5716 5718 5720 5722 5724 5726 5727 5729 5730 5732 5734 5736 5738 5739 5740 5742 5743 5744 5744 5744 5745 5745 5745 5746 5746 5746 5746 5746 5746 5746 5745 5745 5744 5743
5693 5695 5697 5699 5700 5702 5703 5705 5707 5709 5711 5712 5714 5716 5718 5720 5721 5723 5724 5726 5728 5730 5732 5734 5735 5736 5737 5737 5738 5738 5738 5739 5739 5739 5740 5740 5740 5740 5739 5739 5738 5737 5736 5735
5688 5691 5693 5694 5696 5697 5699 5700 5702 5704 5705 5707 5708 5710 5712 5714 5715 5717 5719 5720 5722 5724 5726 5728 5729 5730 5731 5731 5732 5732 5732 5732 5733 5733 5733 5733 5733 5732 5732 5731 5730 5729 5728 5727
5684 5686 5688 5690 5691 5692 5694 5695 5697 5698 5699 5701 5703 5705 5706 5708 5710 5712 5713 5715 5717 5719 5720 5721 5723 5724 5725 5725 5726 5726 5726 5726 5726 5726 5726 5725 5725 5725 5724 5723 5722 5721 5720 5719
5679 5681 5683 5685 5686 5688 5689 5691 5692 5693 5694 5696 5697 5699 5701 5703 5704 5706 5708 5709 5711 5713 5714 5715 5716 5717 5718 5719 5719 5720 5720 5720 5719 5719 5719 5718 5717 5717 5716 5715 5714 5713 5712 5711
5675 5677 5678 5680 5681 5683 5684 5686 5687 5688 5689 5691 5692 5694 5696 5697 5699 5700 5701 5703 5704 5706 5707 5709 5710 5711 5712 5712 5713 5713 5713 5713 5713 5712 5711 5711 5710 5709 5708 5707 5706 5705 5704 5703
5671 5672 5674 5675 5677 5678 5680 5681 5682 5683 5685 5686 5688 5689 5690 5691 5692 5694 5695 5696 5698 5699 5700 5702 5703 5704 5704 5705 5706 5706 5706 5706 5705 5705 5704 5703 5703 5702 5701 5700 5699 5697 5697 5695
5666 5668 5669 5671 5672 5674 5675 5676 5677 5678 5680 5681 5682 5683 5684 5685 5686 5687 5688 5690 5691 5692 5693 5694 5695 5696 5697 5697 5698 5698 5698 5698 5698 5697 5696 5696 5695 5694 5693 5692 5691 5690 5689 5687
5661 5663 5665 5666 5668 5669 5670 5671 5672 5673 5674 5675 5676 5677 5678 5679 5680 5681 5682 5683 5683 5684 5685 5686 5688 5688 5689 5690 5690 5690 5690 5690 5689 5689 5688 5687 5687 5686 5685 5684 5683 5682 5681 5679
5657 5658 5660 5661 5663 5664 5665 5666 5667 5668 5669 5670 5670 5671 5672 5673 5673 5674 5675 5676 5676 5677 5678 5679 5680 5681 5681 5682 5682 5682 5682 5682 5681 5681 5680 5679 5678 5678 5677 5676 5675 5674 5672 5670
5653 5654 5655 5656 5657 5658 5659 5660 5661 5662 5663 5664 5665 5665 5666 5667 5667 5668 5668 5669 5670 5670 5671 5672 5672 5673 5673 5674 5674 5674 5674 5674 5673 5673 5672 5671 5670 5669 5668 5667 5666 5665 5663 5661
5648 5649 5650 5651 5652 5653 5654 5655 5656 5657 5657 5658 5659 5659 5660 5661 5661 5661 5662 5662 5663 5663 5663 5664 5664 5665 5665 5665 5665 5666 5665 5665 5665 5664 5664 5663 5662 5661 5659 5658 5657 5655 5653 5652
5643 5644 5645 5646 5647 5648 5649 5649 5650 5651 5652 5652 5653 5654 5654 5655 5655 5655 5656 5656 5656 5656 5656 5657 5657 5657 5657 5657 5657 5657 5658 5657 5657 5656 5655 5655 5654 5652 5651 5649 5647 5646 5644 5642